When you browse on this site, cookies collect data to enhance your experience and personalize the content and advertising you see.
Visit our Privacy Policy to learn more. By continuing to use the site, you agree to this use of cookies and data.
  • In Österreich
  • Länderverzeichnis
  • Für 7 Tage
  • Wassertemperatur
  • Satellitenkarten
  • Wetterkarte
  • News
  • Widgets
  • user-avatar
    Anmelden

    Stündliche Wetter Podvoste

    Heute, 16 Juli, Dienstag

    Zeit Temperatur Niederschläge Wind Luftdruck Luftfeuchtigkeit
    00:00 +13°C° 0 mm 1 m/S 745 mmHg 91%
    01:00 +13°C° 0 mm 1 m/S 745 mmHg 91%
    02:00 +12°C° 0 mm 1 m/S 746 mmHg 91%
    03:00 +12°C° 0 mm 1 m/S 745 mmHg 91%
    04:00 +12°C° 0 mm 1 m/S 745 mmHg 90%
    05:00 +12°C° 0 mm 1 m/S 745 mmHg 90%
    06:00 +14°C° 0 mm 1 m/S 745 mmHg 84%
    07:00 +16°C° 0 mm 1 m/S 745 mmHg 78%
    08:00 +19°C° 0 mm 1 m/S 745 mmHg 72%
    09:00 +19°C° 0.2 mm 2 m/S 745 mmHg 67%
    10:00 +21°C° 0.2 mm 2 m/S 745 mmHg 62%
    11:00 +23°C° 0.2 mm 2 m/S 744 mmHg 57%
    12:00 +23°C° 0.1 mm 2 m/S 744 mmHg 56%
    13:00 +24°C° 0.1 mm 2 m/S 744 mmHg 56%
    14:00 +24°C° 0.1 mm 3 m/S 743 mmHg 55%
    15:00 +24°C° 0.3 mm 3 m/S 743 mmHg 60%
    16:00 +22°C° 0.3 mm 3 m/S 743 mmHg 65%
    17:00 +22°C° 0.3 mm 3 m/S 743 mmHg 71%
    18:00 +20°C° 0.4 mm 2 m/S 743 mmHg 76%
    19:00 +18°C° 0.4 mm 2 m/S 743 mmHg 82%
    20:00 +17°C° 0.4 mm 2 m/S 742 mmHg 88%
    21:00 +16°C° 0.4 mm 2 m/S 742 mmHg 90%
    22:00 +14°C° 0.4 mm 3 m/S 743 mmHg 92%
    23:00 +13°C° 0.4 mm 3 m/S 743 mmHg 94%

    Morgen, 17 Juli, Mittwoch

    Zeit Temperatur Niederschläge Wind Luftdruck Luftfeuchtigkeit
    00:00 +12°C° 0.1 mm 3 m/S 743 mmHg 94%
    01:00 +12°C° 0.1 mm 3 m/S 743 mmHg 94%
    02:00 +11°C° 0.1 mm 3 m/S 743 mmHg 94%
    03:00 +11°C° 0 mm 3 m/S 742 mmHg 96%
    04:00 +10°C° 0 mm 3 m/S 742 mmHg 97%
    05:00 +10°C° 0 mm 2 m/S 742 mmHg 98%
    06:00 +11°C° 0 mm 3 m/S 742 mmHg 95%
    07:00 +12°C° 0 mm 3 m/S 742 mmHg 91%
    08:00 +14°C° 0 mm 3 m/S 742 mmHg 88%
    09:00 +14°C° 0.5 mm 3 m/S 742 mmHg 85%
    10:00 +15°C° 0.5 mm 4 m/S 742 mmHg 81%
    11:00 +17°C° 0.5 mm 4 m/S 742 mmHg 78%
    12:00 +18°C° 0.4 mm 4 m/S 742 mmHg 74%
    13:00 +18°C° 0.4 mm 4 m/S 742 mmHg 71%
    14:00 +18°C° 0.4 mm 4 m/S 741 mmHg 68%
    15:00 +18°C° 0.5 mm 4 m/S 741 mmHg 72%
    16:00 +18°C° 0.5 mm 4 m/S 741 mmHg 76%
    17:00 +18°C° 0.5 mm 4 m/S 741 mmHg 80%
    18:00 +17°C° 0.6 mm 3 m/S 741 mmHg 84%
    19:00 +16°C° 0.6 mm 3 m/S 741 mmHg 88%
    20:00 +14°C° 0.6 mm 3 m/S 741 mmHg 92%
    21:00 +13°C° 0 mm 3 m/S 741 mmHg 93%
    22:00 +12°C° 0 mm 3 m/S 741 mmHg 95%
    23:00 +11°C° 0 mm 3 m/S 741 mmHg 96%

    übermorgen, 18 Juli, Donnerstag

    Zeit Temperatur Niederschläge Wind Luftdruck Luftfeuchtigkeit
    00:00 +11°C° 0 mm 3 m/S 742 mmHg 97%
    01:00 +11°C° 0 mm 3 m/S 742 mmHg 97%
    02:00 +11°C° 0 mm 3 m/S 742 mmHg 97%
    03:00 +10°C° 0 mm 3 m/S 742 mmHg 98%
    04:00 +10°C° 0 mm 3 m/S 742 mmHg 98%
    05:00 +10°C° 0 mm 3 m/S 742 mmHg 99%
    06:00 +11°C° 0 mm 3 m/S 742 mmHg 97%
    07:00 +12°C° 0 mm 4 m/S 742 mmHg 95%
    08:00 +13°C° 0 mm 4 m/S 742 mmHg 94%
    09:00 +14°C° 0 mm 4 m/S 743 mmHg 91%
    10:00 +14°C° 0 mm 4 m/S 743 mmHg 88%
    11:00 +15°C° 0 mm 4 m/S 743 mmHg 85%
    12:00 +16°C° 0 mm 5 m/S 743 mmHg 82%
    13:00 +17°C° 0 mm 5 m/S 743 mmHg 78%
    14:00 +19°C° 0 mm 5 m/S 743 mmHg 74%
    15:00 +19°C° 0.2 mm 5 m/S 743 mmHg 75%
    16:00 +20°C° 0.2 mm 5 m/S 743 mmHg 76%
    17:00 +20°C° 0.2 mm 5 m/S 743 mmHg 77%
    18:00 +19°C° 0.4 mm 4 m/S 743 mmHg 83%
    19:00 +18°C° 0.4 mm 3 m/S 743 mmHg 88%
    20:00 +17°C° 0.4 mm 3 m/S 744 mmHg 93%
    21:00 +16°C° 0 mm 3 m/S 744 mmHg 94%
    22:00 +16°C° 0 mm 3 m/S 744 mmHg 95%
    23:00 +14°C° 0 mm 3 m/S 744 mmHg 97%

    19 Juli, Freitag

    Zeit Temperatur Niederschläge Wind Luftdruck Luftfeuchtigkeit
    00:00 +14°C° 0 mm 3 m/S 745 mmHg 97%
    01:00 +13°C° 0 mm 3 m/S 745 mmHg 97%
    02:00 +13°C° 0 mm 3 m/S 745 mmHg 97%
    03:00 +13°C° 0 mm 3 m/S 745 mmHg 97%
    04:00 +12°C° 0 mm 3 m/S 746 mmHg 97%
    05:00 +12°C° 0 mm 3 m/S 746 mmHg 97%
    06:00 +14°C° 0 mm 3 m/S 746 mmHg 92%
    07:00 +16°C° 0 mm 3 m/S 746 mmHg 88%
    08:00 +18°C° 0 mm 3 m/S 747 mmHg 84%
    09:00 +19°C° 0 mm 4 m/S 747 mmHg 76%
    10:00 +21°C° 0 mm 4 m/S 747 mmHg 67%
    11:00 +23°C° 0 mm 4 m/S 747 mmHg 59%
    12:00 +23°C° 0.1 mm 4 m/S 747 mmHg 59%
    13:00 +23°C° 0.1 mm 4 m/S 747 mmHg 58%
    14:00 +25°C° 0.1 mm 4 m/S 747 mmHg 58%
    15:00 +25°C° 0.1 mm 4 m/S 747 mmHg 59%
    16:00 +23°C° 0.1 mm 4 m/S 747 mmHg 60%
    17:00 +24°C° 0.1 mm 3 m/S 747 mmHg 61%
    18:00 +22°C° 0 mm 3 m/S 747 mmHg 68%
    19:00 +20°C° 0 mm 2 m/S 747 mmHg 75%
    20:00 +18°C° 0 mm 2 m/S 748 mmHg 82%
    21:00 +17°C° 0 mm 2 m/S 748 mmHg 84%
    22:00 +16°C° 0 mm 1 m/S 748 mmHg 86%
    23:00 +15°C° 0 mm 1 m/S 749 mmHg 88%

    20 Juli, Samstag

    Zeit Temperatur Niederschläge Wind Luftdruck Luftfeuchtigkeit
    00:00 +15°C° 0 mm 1 m/S 749 mmHg 88%
    01:00 +14°C° 0 mm 1 m/S 749 mmHg 88%
    02:00 +14°C° 0 mm 1 m/S 749 mmHg 88%
    03:00 +14°C° 0 mm 1 m/S 749 mmHg 87%
    04:00 +14°C° 0 mm 1 m/S 749 mmHg 87%
    05:00 +14°C° 0 mm 1 m/S 749 mmHg 86%
    06:00 +16°C° 0 mm 1 m/S 749 mmHg 80%
    07:00 +19°C° 0 mm 1 m/S 749 mmHg 73%
    08:00 +21°C° 0 mm 1 m/S 749 mmHg 67%
    09:00 +23°C° 0 mm 1 m/S 749 mmHg 62%
    10:00 +24°C° 0 mm 1 m/S 750 mmHg 58%
    11:00 +26°C° 0 mm 1 m/S 750 mmHg 54%
    12:00 +26°C° 0.2 mm 1 m/S 749 mmHg 54%
    13:00 +26°C° 0.2 mm 1 m/S 749 mmHg 55%
    14:00 +26°C° 0.2 mm 1 m/S 749 mmHg 55%
    15:00 +25°C° 0.1 mm 1 m/S 749 mmHg 60%
    16:00 +25°C° 0.1 mm 2 m/S 749 mmHg 65%
    17:00 +24°C° 0.1 mm 2 m/S 749 mmHg 71%
    18:00 +23°C° 0.1 mm 2 m/S 749 mmHg 77%
    19:00 +21°C° 0.1 mm 1 m/S 749 mmHg 82%
    20:00 +20°C° 0.1 mm 1 m/S 749 mmHg 88%
    21:00 +19°C° 0 mm 1 m/S 749 mmHg 90%
    22:00 +18°C° 0 mm 1 m/S 749 mmHg 91%
    23:00 +15°C° 0 mm 0 m/S 750 mmHg 92%

    21 Juli, Sonntag

    Zeit Temperatur Niederschläge Wind Luftdruck Luftfeuchtigkeit
    00:00 +15°C° 0 mm 0 m/S 750 mmHg 92%
    01:00 +15°C° 0 mm 0 m/S 750 mmHg 93%
    02:00 +14°C° 0 mm 0 m/S 750 mmHg 93%
    03:00 +14°C° 0 mm 0 m/S 750 mmHg 93%
    04:00 +14°C° 0 mm 0 m/S 750 mmHg 93%
    05:00 +14°C° 0 mm 0 m/S 750 mmHg 93%
    06:00 +16°C° 0 mm 0 m/S 750 mmHg 88%
    07:00 +18°C° 0 mm 0 m/S 750 mmHg 83%
    08:00 +20°C° 0 mm 0 m/S 750 mmHg 78%
    09:00 +21°C° 0.5 mm 0 m/S 750 mmHg 73%
    10:00 +23°C° 0.5 mm 0 m/S 750 mmHg 68%
    11:00 +24°C° 0.5 mm 0 m/S 750 mmHg 63%
    12:00 +25°C° 0.2 mm 0 m/S 750 mmHg 59%
    13:00 +27°C° 0.2 mm 1 m/S 750 mmHg 55%
    14:00 +28°C° 0.2 mm 1 m/S 750 mmHg 51%
    15:00 +28°C° 0 mm 1 m/S 750 mmHg 52%
    16:00 +25°C° 0 mm 0 m/S 749 mmHg 53%
    17:00 +25°C° 0 mm 0 m/S 749 mmHg 55%
    18:00 +25°C° 0 mm 1 m/S 749 mmHg 62%
    19:00 +23°C° 0 mm 1 m/S 749 mmHg 69%
    20:00 +21°C° 0 mm 1 m/S 749 mmHg 77%
    21:00 +21°C° 0.2 mm 1 m/S 749 mmHg 78%
    22:00 +20°C° 0.2 mm 1 m/S 749 mmHg 80%
    23:00 +20°C° 0.2 mm 1 m/S 749 mmHg 82%
    Mehr zeigen